Regional Weather Roundup
Issued by NWS State College, PA

Home | Current Version | Previous Version | Graphics & Text | Print | Product List | Glossary Off
Versions: 1 2 3 4 5 6 7 8 9 10 11 12 13 14 15 16 17 18 19 20 21 22 23 24 25 26 27 28 29 30 31 32 33 34 35 36 37 38 39 40 41 42 43 44 45 46 47 48 49 50

000
ASUS41 KCTP 260903
RWRCTP

REGIONAL WEATHER ROUNDUP
NATIONAL WEATHER SERVICE STATE COLLEGE PA
500 AM EDT THU APR 26 2018

Note: "fair" indicates few or no clouds below 12,000 feet with no
significant weather and/or obstructions to visibility.

* = STATION THAT DOES NOT REPORT PRECIPITATION /E.G. RAIN...SNOW...ETC/
    THUNDER OR FOG.

PAZ002>004-007>009-013>016-020>023-029>032-261000-
WESTERN PENNSYLVANIA

CITY           SKY/WX    TMP DP  RH WIND       PRES   REMARKS
ERIE           CLOUDY    40  34  79 W12       29.88S
MEADVILLE      CLOUDY    34  33  96 W6        29.87R
FRANKLIN*      CLOUDY    36  32  85 W7        29.87R
NEW CASTLE     CLOUDY    37  34  89 CALM      29.91S
BEAVER COUNTY  NOT AVBL
BUTLER*        CLOUDY    38  33  82 NW6       29.90R
PITTSBURGH INT CLOUDY    40  35  83 NW15      29.89R
PITTSBURGH     CLOUDY    39  36  89 NW6       29.88R
INDIANA*       CLOUDY    41  36  81 NW10      29.89R
LATROBE        CLOUDY    39  37  93 SW8       29.90R
WASHINGTON CO* FAIR      36  35  96 NW3       29.93R
$$

PAZ004>006-010>012-017>019-024>028-033>037-041-042-045-046-049>053-261000-
CENTRAL PENNSYLVANIA

CITY           SKY/WX    TMP DP  RH WIND       PRES   REMARKS
BRADFORD       CLOUDY    35  33  92 W9        29.78R FOG
DUBOIS         CLOUDY    36  34  92 W15       29.81R
CLEARFIELD     CLOUDY    41  35  79 W7        29.81R
JOHNSTOWN      CLOUDY    38  34  85 W13       29.82R
ALTOONA        CLOUDY    44  35  70 NW9       29.83R
STATE COLLEGE  CLOUDY    43  36  75 W8G16     29.81R
WILLIAMSPORT   MOCLDY    47  38  71 W13       29.75R
SELINSGROVE    CLOUDY    48  37  65 W6        29.78R
FT INDIANTOWN  FAIR      48  37  66 W14G20    29.75R
CAPITAL CITY   FAIR      49  37  63 NW9       29.78R
HARRISBURG     FAIR      48  38  68 NW16      29.76R
YORK           FAIR      43  37  79 CALM      29.78R
$$

PAZ038>040-043-044-047-048-054-055-060>062-067>071-261000-
EASTERN PENNSYLVANIA

CITY           SKY/WX    TMP DP  RH WIND       PRES   REMARKS
SCRANTON       CLOUDY    48  42  80 VRB6      29.70R
MOUNT POCONO   CLOUDY    46  45  96 W14       29.66R
ALLENTOWN      FAIR      53  43  68 W15       29.69R
QUAKERTOWN*    SUNNY     52  45  76 W9        29.70R
READING        FAIR      48  41  76 W8        29.73R
LANCASTER      FAIR      47  39  74 NW14      29.75R
COATESVILLE    FAIR      46  39  76 W17       29.74R
POTTSTOWN      FAIR      49  41  74 W10       29.73R
BLUE BELL      FAIR      52  45  76 W9        29.71R
DOYLESTOWN     MOCLDY    55  48  77 W8        29.67R
WILLOW GROVE   NOT AVBL
NORTH PHILA    CLOUDY    58  49  72 W13G23    29.69R
PHILADELPHIA   MOCLDY    56  46  69 W17       29.70R
$$



USA.gov is the U.S. government's official web portal to all federal, state and local government web resources and services.